Wetbulb
27.48 27.13 27.07 27.18 26.85 26.62 25.95 25.71 25.49 25.33 25.53 25.69 26.02 26.13 26.26 26.30 26.72 26.18 25.97 26.46 26.39 27.11 28.20 28.61 29.24 30.00 30.59 30.89 30.82 31.75 33.11 34.02 31.88 34.43 29.03 28.84 28.62 31.16 31.38 34.11 33.32 32.85 35.49
27.48 26.52 26.15 25.90 25.51 25.22 24.64 25.06 25.28 25.18 25.66 25.06 24.98 24.67 24.56 24.59 25.04 25.15 25.40 25.30 25.30 26.11 27.10 27.71 28.46 30.86 28.98 29.29 30.13 30.41 31.01 32.02 32.52 31.63 34.52 27.06 27.92 29.87 32.11 31.46 31.54 31.80 31.80
26.74 26.00 25.25 24.92 24.31 24.18 24.28 24.66 24.80 24.65 24.44 24.49 24.47 23.75 23.82 24.02 23.92 24.18 24.23 24.71 25.57 26.11 26.62 26.89 27.57 27.77 28.56 29.37 30.43 30.75 30.96 32.01 31.61 30.47 30.96 28.89 27.76 28.04 27.49 29.36 30.34 29.54 29.57
25.26 25.04 23.88 23.44 23.81 23.97 24.25 23.60 23.32 23.47 22.95 22.87 23.10 23.29 23.22 23.23 23.36 23.20 23.32 23.79 24.45 25.42 26.29 26.99 27.42 27.61 27.74 28.10 29.19 30.40 31.44 31.17 31.20 30.32 30.00 30.05 25.56 26.66 29.07 28.61 27.36 27.88 26.99
25.16 24.91 24.23 24.13 24.03 23.61 23.19 22.93 23.19 23.32 23.10 22.66 22.10 22.04 22.32 22.73 23.65 23.18 23.97 23.61 23.31 23.34 24.22 24.97 25.93 27.80 30.81 31.31 29.33 28.99 29.75 30.84 30.99 30.38 29.82 30.31 26.18 24.39 26.69 27.89 28.60 27.97 27.56
23.85 22.63 22.91 22.47 22.60 22.44 22.25 22.05 21.43 20.74 20.18 20.06 19.74 19.56 19.27 21.60 24.76 25.71 24.95 22.35 22.52 22.46 22.18 23.19 23.83 24.50 26.17 29.60 31.77 34.11 33.02 29.79 29.04 30.69 30.45 29.56 30.07 28.06 29.46 28.90 27.68 26.74 24.95
19.87 18.30 18.59 20.05 19.68 19.80 18.91 18.15 17.49 16.67 16.98 16.28 16.48 16.73 16.48 17.17 21.32 22.36 22.88 20.80 19.85 19.57 20.10 20.95 21.72 23.25 23.92 24.62 28.15 30.81 31.88 33.91 35.71 32.05 30.28 30.88 30.79 31.83 30.14 28.42 27.61 29.10 28.96
18.41 16.25 16.82 18.20 15.30 15.67 15.02 13.98 13.88 13.89 13.29 13.04 12.93 12.86 12.59 14.13 18.46 19.14 19.12 16.92 16.14 16.21 16.67 17.52 18.03 18.75 20.04 21.15 21.85 22.90 25.94 27.98 29.21 30.95 33.29 33.01 33.39 33.76 31.38 30.37 30.59 29.52 30.82
17.78 17.77 16.20 14.11 11.16 12.03 9.43 10.02 10.70 10.14 9.51 8.92 10.32 9.60 8.75 9.10 14.53 16.03 16.34 13.47 13.38 13.35 14.79 15.27 15.40 15.72 18.84 21.45 19.43 18.95 20.76 23.36 30.24 33.59 34.55 35.72 37.04 37.87 36.14 31.94 28.79 27.56 26.04
16.56 15.22 13.97 12.44 6.20 7.73 8.43 7.30 7.76 6.94 8.01 8.36 7.44 7.47 6.91 5.50 11.46 14.12 15.07 12.30 10.07 11.30 12.89 14.72 17.39 17.50 20.04 21.65 19.53 18.49 17.27 19.91 23.64 26.76 28.75 31.06 34.41 34.48 36.95 34.41 30.73 27.50 26.83
12.80 11.53 9.82 9.41 6.71 5.99 5.48 5.88 4.90 4.09 5.21 3.42 3.94 4.47 4.78 6.09 6.62 13.17 15.35 13.23 11.92 10.69 10.71 12.03 14.50 17.89 18.88 19.83 21.08 18.85 19.32 22.38 23.86 25.09 27.24 28.36 29.03 30.58 32.00 34.37 33.93 30.43 28.24
8.19 6.24 4.84 2.24 3.32 5.63 1.69 2.16 2.13 1.48 0.61 0.21 0.53 1.97 4.57 6.18 9.55 12.13 15.00 16.59 17.06 12.90 11.89 13.01 13.27 17.17 18.41 19.63 19.65 20.95 21.79 22.24 23.02 23.86 25.83 26.81 27.91 28.34 29.64 31.49 33.11 32.52 32.66
0.78 -3.69 -3.08 -0.36 2.33 3.01 -0.24 0.55 0.09 0.10 -0.81 -0.50 0.66 0.50 1.89 5.42 6.76 12.55 15.48 16.74 17.40 14.44 14.15 15.33 19.29 20.57 21.21 20.04 19.43 19.14 18.29 16.02 17.17 19.44 23.29 25.79 28.19 29.60 29.87 30.04 31.41 33.04 31.42
-10.15 -4.21 -0.36 -1.16 -0.01 -0.59 2.15 2.46 0.55 -0.70 -0.91 0.44 0.31 1.25 4.25 8.26 10.26 11.63 11.93 12.13 15.89 16.54 17.05 14.41 16.21 18.46 19.83 18.93 16.45 17.00 16.23 16.57 16.44 16.82 20.53 27.07 29.23 29.10 28.58 29.48 28.96 30.44 28.65
-5.46 -0.72 -1.16 -0.92 -3.13 0.03 1.50 1.40 1.99 3.86 5.21 5.46 7.75 9.47 9.02 8.31 10.53 16.75 18.09 16.55 17.31 18.89 19.32 18.63 17.16 10.77 8.30 8.74 10.02 12.63 13.95 14.23 14.72 16.72 22.33 25.00 27.47 28.06 27.70 28.62 28.52 28.34 25.74
-3.58 -0.69 -0.69 -0.05 -0.30 0.50 -0.05 -0.01 7.24 10.44 12.82 14.27 15.88 14.58 12.76 16.51 17.98 19.51 19.86 20.18 21.19 22.08 17.67 15.83 15.52 15.70 14.43 12.87 11.42 10.85 12.37 14.42 16.64 18.30 23.39 25.72 26.98 27.42 26.82 27.60 27.24 26.62 22.94
-11.18 -3.30 -1.84 -0.93 -1.78 -1.93 -1.44 -2.01 -3.15 2.46 10.36 11.31 12.81 14.27 14.91 16.13 16.66 17.27 18.50 19.57 18.55 16.25 8.34 9.08 10.60 12.24 13.68 14.30 13.00 11.66 12.05 14.90 17.71 21.85 23.82 25.49 25.58 26.17 25.89 25.35 24.42 24.76 22.46
-13.45 -5.39 -4.96 -3.85 -3.70 -3.01 -2.89 -1.93 -1.23 -2.47 -2.29 -0.03 7.04 10.07 12.18 12.99 14.58 16.75 15.74 13.84 2.36 5.19 5.73 6.76 6.99 8.33 8.79 13.33 11.96 11.85 13.36 15.16 16.37 19.47 23.02 24.95 25.63 25.42 24.13 24.32 23.09 22.87 21.65
-10.48 -7.59 -7.78 -5.93 -3.85 -2.34 -1.81 -2.09 -1.82 -1.67 -1.13 -1.20 0.38 4.44 5.09 10.35 13.37 11.45 11.27 2.22 1.79 1.94 3.50 4.56 6.24 7.93 11.44 13.75 14.21 13.17 13.82 15.69 18.07 21.46 23.82 26.09 25.67 24.74 23.98 23.76 21.99 21.96 21.17
-13.45 -7.29 -4.36 -8.07 -5.14 -4.86 -3.47 -3.74 -3.13 -3.18 -2.82 -2.42 -1.83 -0.99 1.01 6.79 -0.22 0.11 1.27 0.93 0.75 0.93 2.34 3.08 4.49 6.82 10.33 13.66 16.15 15.52 15.28 16.72 18.86 21.56 22.78 22.83 23.91 24.41 24.02 22.38 21.48 20.11 20.16
-16.19 -13.58 -7.00 -10.34 -10.07 -7.05 -5.67 -5.47 -4.43 -4.20 -4.21 -3.75 -2.44 0.61 11.86 1.74 -0.79 -0.43 0.05 0.52 0.39 0.67 1.06 1.71 2.84 4.95 7.38 9.77 11.97 17.81 18.03 19.17 22.02 23.06 23.49 22.56 23.05 21.56 23.00 21.78 20.48 19.91 19.70
-16.24 -16.79 -16.51 -14.74 -6.09 -6.79 -8.50 -5.83 -6.30 -6.40 -5.27 -4.65 -3.17 -0.75 7.82 -0.62 -1.01 -0.51 0.25 1.23 1.83 2.42 2.98 2.67 3.02 4.67 6.23 7.79 8.97 10.25 12.93 14.11 15.96 16.47 17.63 18.17 18.90 19.04 19.04 18.27 18.07 17.52 15.99
-15.10 -14.83 -12.41 -8.01 -6.39 -8.30 -9.22 -11.89 -10.80 -8.70 -7.24 -6.39 -5.13 -3.61 -3.16 -2.99 -2.33 -1.24 -0.78 0.81 2.23 2.56 3.39 3.58 3.58 4.67 6.98 8.27 9.64 10.11 9.39 9.91 11.87 14.80 13.93 13.74 14.46 14.83 15.45 14.89 14.45 13.60 12.64
-14.48 -12.33 -7.55 -6.11 -7.59 -11.34 -12.94 -11.70 -11.35 -9.53 -9.60 -8.56 -9.21 -6.50 -4.95 -4.66 -4.06 -3.00 -1.64 -0.12 1.27 1.75 2.80 3.32 4.29 4.93 6.51 7.83 9.17 9.83 11.06 11.95 12.29 12.75 12.81 11.71 11.26 12.11 12.40 12.36 12.53 12.28 12.01
-10.51 -7.13 -6.44 -7.51 -13.25 -13.93 -15.44 -16.56 -13.80 -16.72 -15.41 -12.76 -10.32 -8.91 -7.84 -7.38 -6.96 -6.29 -4.56 -3.12 -1.02 0.08 0.87 2.19 4.03 4.86 6.11 9.50 8.98 9.25 10.29 10.50 10.77 12.13 12.00 11.56 10.74 10.65 10.52 10.28 10.27 10.48 10.49
-6.76 -6.55 -6.83 -9.11 -12.68 -14.45 -18.15 -18.74 -18.56 -16.67 -15.95 -12.74 -11.75 -11.19 -10.11 -9.14 -8.07 -7.38 -6.44 -5.14 -3.24 -1.57 -1.10 0.61 1.97 2.84 5.01 9.40 11.02 13.87 14.05 13.07 10.25 10.82 10.43 10.11 9.28 9.05 9.25 8.82 8.71 8.32 8.08
MSLP
1026.84 1026.68 1026.71 1026.97 1026.81 1026.86 1026.93 1026.99 1026.79 1026.71 1026.51 1026.12 1025.73 1025.40 1025.38 1025.06 1024.83 1024.34 1023.88 1023.30 1022.75 1022.16 1021.47 1021.19 1020.88 1020.55 1020.13 1019.82 1019.62 1019.32 1019.12 1018.83 1017.72 1017.03 1017.26 1016.98 1017.27 1017.40 1017.50 1017.63 1017.96 1018.13 1018.22
1026.43 1026.67 1026.88 1027.12 1027.28 1027.34 1027.10 1027.02 1026.90 1026.94 1026.48 1026.23 1025.85 1025.43 1025.07 1024.98 1024.68 1024.21 1023.68 1023.23 1022.70 1022.00 1021.30 1020.82 1020.44 1020.02 1019.62 1019.19 1019.04 1018.63 1018.34 1018.05 1017.64 1016.60 1016.70 1016.67 1016.59 1016.51 1016.53 1016.88 1017.18 1017.27 1017.49
1026.55 1026.79 1027.09 1027.28 1027.38 1027.39 1027.30 1027.12 1026.89 1026.56 1026.28 1025.94 1025.55 1025.28 1024.97 1024.58 1024.20 1023.64 1023.15 1022.60 1022.15 1021.62 1021.15 1020.61 1020.03 1019.65 1019.11 1018.60 1018.07 1017.74 1017.55 1016.92 1016.78 1016.42 1015.68 1015.79 1015.74 1015.76 1016.25 1016.30 1016.44 1016.92 1017.08
1026.50 1026.78 1027.02 1027.11 1027.06 1026.89 1026.75 1026.65 1026.49 1026.34 1026.09 1025.77 1025.40 1025.04 1024.62 1024.14 1023.67 1023.33 1022.68 1022.02 1021.53 1020.90 1020.46 1020.11 1019.60 1018.95 1018.59 1018.03 1017.53 1016.90 1016.56 1016.28 1015.92 1015.41 1015.08 1015.04 1015.21 1015.00 1014.94 1015.35 1016.11 1016.18 1016.32
1026.14 1026.45 1026.81 1026.98 1027.05 1027.02 1026.98 1026.84 1026.52 1026.23 1025.96 1025.52 1025.11 1024.62 1024.23 1023.78 1023.10 1022.59 1022.10 1021.66 1021.22 1020.40 1019.74 1019.18 1018.65 1017.98 1017.62 1017.08 1016.77 1016.10 1015.98 1015.45 1014.92 1014.44 1014.02 1014.05 1013.99 1014.27 1013.50 1013.85 1014.19 1015.05 1015.25
1026.23 1026.79 1026.93 1026.98 1026.96 1027.01 1027.01 1026.90 1026.65 1026.33 1026.03 1025.67 1025.25 1024.70 1023.75 1023.08 1022.64 1022.30 1022.07 1021.40 1020.65 1019.86 1019.02 1018.35 1017.83 1017.34 1016.53 1016.08 1015.35 1015.14 1014.89 1014.35 1013.67 1013.54 1013.09 1012.47 1011.92 1012.14 1012.56 1012.64 1013.17 1013.92 1014.37
1026.79 1027.01 1027.09 1027.18 1027.35 1027.44 1027.39 1027.16 1026.84 1026.44 1026.04 1025.60 1025.11 1024.63 1023.74 1023.21 1022.86 1022.27 1021.79 1021.07 1020.18 1019.32 1018.52 1017.57 1016.89 1016.45 1015.86 1015.23 1014.61 1013.95 1013.21 1012.98 1012.50 1012.37 1011.64 1010.66 1010.73 1010.53 1011.12 1011.64 1011.68 1011.62 1011.26
1027.16 1027.50 1027.44 1027.62 1027.83 1027.80 1027.65 1027.46 1027.10 1026.75 1026.24 1025.64 1025.00 1024.63 1024.00 1023.41 1022.89 1022.22 1021.56 1020.66 1019.71 1018.91 1018.33 1017.59 1016.82 1015.84 1015.49 1015.29 1014.57 1013.49 1012.44 1011.73 1011.15 1010.78 1010.10 1009.27 1009.46 1009.85 1009.70 1009.99 1010.35 1010.79 1010.74
1027.10 1027.51 1027.84 1028.07 1028.21 1028.17 1028.03 1027.64 1027.28 1026.79 1026.25 1025.66 1025.09 1024.36 1023.92 1023.24 1022.86 1021.92 1020.99 1020.11 1019.08 1018.21 1017.70 1017.06 1016.49 1015.66 1015.15 1014.68 1013.78 1012.68 1011.74 1010.54 1009.77 1009.33 1008.96 1008.38 1008.47 1008.43 1008.75 1009.35 1009.45 1009.99 1009.69
1027.37 1027.67 1027.93 1028.10 1028.18 1028.15 1027.89 1027.54 1027.14 1026.78 1025.96 1025.36 1024.57 1024.22 1023.62 1022.76 1022.20 1021.30 1020.34 1019.39 1018.25 1017.37 1016.72 1016.01 1015.45 1014.72 1013.98 1013.40 1012.76 1011.95 1010.62 1009.14 1009.31 1008.42 1007.70 1007.16 1006.99 1007.11 1007.34 1007.37 1007.65 1007.66 1007.85
1027.65 1027.93 1028.06 1028.12 1028.03 1027.84 1027.45 1027.21 1026.76 1026.23 1025.66 1025.10 1024.38 1023.71 1023.06 1022.29 1021.33 1020.46 1019.48 1018.40 1017.49 1016.45 1015.59 1014.73 1014.23 1013.79 1012.94 1012.35 1011.82 1010.81 1009.45 1008.80 1007.96 1007.28 1006.30 1005.60 1005.49 1005.68 1005.70 1005.62 1005.51 1005.89 1006.24
1027.68 1027.89 1028.02 1028.00 1027.86 1027.54 1027.25 1026.75 1026.30 1025.79 1025.17 1024.50 1023.72 1022.85 1022.08 1021.16 1020.33 1019.36 1018.37 1017.32 1016.35 1015.25 1014.28 1013.51 1012.89 1012.47 1011.66 1010.83 1010.14 1009.39 1008.48 1007.91 1006.61 1005.77 1004.81 1003.64 1003.56 1003.67 1003.80 1003.85 1004.08 1004.31 1004.31
1027.83 1028.17 1028.06 1027.78 1027.51 1027.24 1026.98 1026.34 1025.86 1025.32 1024.68 1023.74 1022.93 1022.01 1020.80 1019.82 1018.90 1017.97 1016.89 1015.97 1015.08 1013.95 1013.05 1012.10 1010.98 1009.82 1008.91 1008.14 1008.20 1008.03 1007.35 1006.96 1005.86 1004.95 1003.10 1002.06 1001.52 1001.70 1002.33 1002.72 1003.02 1003.24 1003.53
1028.02 1027.83 1027.50 1027.33 1026.97 1026.66 1026.32 1025.77 1025.21 1024.60 1023.86 1022.93 1021.98 1020.75 1019.26 1017.97 1017.02 1016.26 1015.21 1014.07 1013.14 1012.11 1011.09 1009.90 1008.88 1008.12 1007.59 1006.89 1006.29 1005.91 1005.68 1005.24 1004.53 1003.55 1002.34 1000.55 1000.09 1000.22 1000.51 1001.27 1001.88 1002.38 1002.73
1027.66 1027.32 1026.98 1026.79 1026.57 1026.04 1025.61 1025.07 1024.39 1023.65 1022.91 1021.43 1020.22 1019.04 1017.67 1016.46 1015.66 1014.43 1013.17 1012.13 1011.09 1010.02 1008.80 1007.69 1006.82 1006.65 1006.15 1005.64 1004.99 1004.41 1003.86 1003.39 1002.66 1001.99 1000.42 999.26 998.73 998.65 999.08 999.79 1000.59 1001.43 1001.73
1027.45 1026.95 1026.68 1026.41 1026.02 1025.61 1024.98 1024.07 1023.37 1022.56 1021.43 1020.43 1019.26 1018.04 1016.83 1015.67 1014.42 1013.17 1012.15 1011.15 1009.89 1008.73 1007.53 1006.50 1005.46 1004.70 1004.14 1003.51 1003.00 1002.52 1002.10 1001.47 1000.65 999.95 997.95 997.69 997.16 997.01 997.59 998.50 999.45 999.99 1000.75
1026.99 1026.58 1026.28 1025.95 1025.58 1025.23 1024.58 1024.04 1023.14 1021.19 1020.56 1019.79 1018.88 1017.65 1016.50 1015.07 1013.94 1012.83 1011.57 1010.28 1009.49 1008.95 1008.33 1006.94 1005.66 1004.39 1002.92 1001.88 1001.45 1001.21 1000.51 999.80 999.09 998.00 996.87 996.19 996.40 996.78 996.80 997.41 998.17 998.90 999.73
1026.61 1026.27 1025.94 1025.60 1025.30 1024.87 1024.29 1023.63 1023.04 1022.30 1020.93 1019.11 1017.93 1017.42 1016.19 1015.15 1013.88 1012.32 1011.50 1010.45 1010.02 1009.15 1008.52 1007.25 1005.75 1004.31 1002.91 1001.17 1000.36 1000.00 999.39 998.77 998.10 997.15 996.04 995.64 995.53 995.77 996.19 996.54 997.18 997.89 998.80
1026.29 1025.91 1025.53 1025.23 1024.90 1024.38 1023.82 1023.23 1022.66 1021.85 1020.83 1019.79 1018.28 1016.90 1016.10 1014.82 1013.48 1012.91 1012.15 1011.74 1010.65 1009.51 1008.41 1007.08 1005.68 1003.92 1001.92 999.85 999.16 998.98 998.56 997.94 997.22 996.37 995.52 994.98 994.73 994.81 995.35 995.95 996.61 997.25 998.07
1025.67 1025.33 1024.94 1024.79 1024.50 1024.03 1023.57 1022.93 1022.34 1021.51 1020.65 1019.78 1018.54 1017.41 1015.85 1014.33 1013.74 1012.94 1012.36 1011.71 1010.79 1009.77 1008.53 1007.26 1005.67 1004.03 1002.10 1000.10 998.50 998.05 997.66 997.11 996.42 995.75 995.17 994.82 994.67 994.65 994.84 995.36 996.04 996.76 997.51
1025.18 1024.94 1024.57 1024.49 1024.23 1023.69 1023.25 1022.71 1022.21 1021.36 1020.56 1019.69 1018.55 1017.58 1015.61 1015.34 1014.59 1013.71 1012.65 1011.72 1010.83 1009.74 1008.61 1007.45 1005.98 1004.36 1002.67 1001.00 999.48 997.96 996.99 996.23 995.48 994.91 994.58 994.38 994.33 994.52 994.76 995.21 995.78 996.39 997.19
1024.49 1024.52 1024.46 1024.25 1023.74 1023.34 1022.87 1022.50 1021.92 1021.27 1020.60 1019.71 1018.57 1017.65 1016.44 1015.87 1014.97 1014.02 1012.98 1011.90 1010.89 1009.91 1008.87 1007.72 1006.34 1004.90 1003.42 1001.86 1000.42 999.17 997.92 996.91 996.13 995.45 995.02 994.79 994.69 994.80 995.09 995.55 996.11 996.74 997.49
1023.84 1024.06 1023.91 1023.58 1023.23 1023.03 1022.62 1022.25 1021.65 1021.08 1020.56 1019.72 1018.86 1017.89 1017.00 1016.15 1015.20 1014.24 1013.25 1012.13 1010.99 1009.88 1008.79 1007.70 1006.45 1005.08 1003.73 1002.41 1001.17 1000.11 999.15 998.21 997.37 996.53 996.18 995.94 995.79 995.79 996.02 996.41 996.86 997.48 998.15
1023.23 1023.43 1023.36 1023.10 1022.91 1022.71 1022.48 1022.15 1021.58 1021.10 1020.49 1019.73 1018.89 1018.16 1017.40 1016.48 1015.55 1014.60 1013.57 1012.42 1011.27 1010.16 1009.05 1007.95 1006.77 1005.57 1004.22 1002.97 1001.83 1000.79 999.95 999.02 998.27 997.67 997.19 996.96 996.91 996.99 997.21 997.52 997.89 998.36 998.97
1022.64 1022.68 1022.75 1022.67 1022.60 1022.44 1022.30 1022.01 1021.56 1021.10 1020.41 1019.76 1018.98 1018.31 1017.49 1016.63 1015.83 1014.92 1013.89 1012.85 1011.74 1010.59 1009.47 1008.43 1007.29 1006.10 1004.80 1003.48 1002.34 1001.46 1000.68 999.86 999.27 998.74 998.30 998.07 998.07 998.18 998.37 998.61 998.96 999.43 999.85
1022.07 1022.16 1022.21 1022.24 1022.22 1022.12 1022.10 1021.80 1021.39 1020.85 1020.30 1019.68 1018.96 1018.33 1017.65 1016.77 1015.95 1015.08 1014.12 1013.16 1012.15 1011.08 1010.02 1008.95 1007.87 1006.70 1005.53 1004.26 1003.14 1002.02 1001.18 1000.66 1000.24 999.86 999.54 999.35 999.29 999.42 999.62 999.84 1000.11 1000.58 1001.00
Wind_Speed
4 4 6 6 7 6 6 5 5 5 6 6 6 6 6 7 8 7 7 8 8 8 7 6 7 7 6 5 5 5 7 8 13 10 4 5 6 9 7 11 9 12 12
4 4 5 4 5 5 5 6 6 7 6 6 6 7 8 8 7 6 9 8 8 11 11 9 9 7 7 6 6 9 8 8 10 16 10 5 9 9 11 12 10 10 11
3 3 2 1 2 3 4 5 5 6 7 8 8 9 11 11 12 11 10 11 10 10 11 11 13 9 10 7 8 9 8 7 9 10 11 4 5 3 3 5 9 9 7
5 3 1 2 4 5 5 6 6 6 6 7 8 10 10 11 11 12 12 12 13 12 12 12 14 13 14 12 10 11 9 9 9 9 10 9 5 4 5 8 7 7 9
4 2 3 4 4 4 5 6 7 9 10 11 14 14 13 13 10 12 13 14 15 17 17 15 15 15 21 20 12 13 11 10 10 10 11 9 7 5 9 6 11 7 10
4 3 4 4 5 6 7 8 10 11 12 12 13 14 16 12 23 27 23 16 17 17 18 17 16 18 21 29 29 30 24 14 15 12 12 13 16 11 9 10 9 9 9
4 2 4 5 5 6 8 10 12 13 14 14 14 14 16 16 26 29 28 16 17 17 19 18 17 14 18 17 23 30 29 30 30 19 18 18 15 13 10 12 13 14 14
3 3 3 4 4 7 9 10 12 11 13 13 14 15 16 14 26 28 29 19 17 19 19 20 20 21 19 20 20 21 20 19 21 17 21 22 17 14 11 14 15 15 11
2 2 3 1 3 7 9 10 10 12 12 13 14 15 15 15 25 28 25 16 16 18 17 18 18 20 26 31 23 22 23 23 22 30 32 33 30 28 21 8 12 11 13
1 2 3 3 3 7 9 10 10 10 13 12 14 14 16 16 23 27 24 12 15 14 15 18 22 25 32 32 21 19 22 23 18 20 17 23 28 24 31 18 13 16 14
2 1 3 5 6 8 10 9 10 11 12 12 14 13 14 15 16 26 26 15 13 13 13 13 12 27 33 34 34 20 23 21 23 21 18 16 15 16 16 17 17 16 15
1 2 4 5 6 7 9 10 10 11 12 12 11 11 10 13 19 22 27 28 26 16 16 14 15 29 33 34 28 31 38 34 14 15 16 16 15 15 15 16 19 17 17
2 4 5 6 7 7 7 10 9 9 9 10 9 11 12 11 11 25 28 29 29 21 15 22 36 37 38 29 29 33 29 17 14 16 17 17 14 13 15 14 15 16 18
3 5 5 5 7 6 6 7 8 8 8 9 11 13 12 11 11 10 12 14 22 20 24 20 26 32 34 29 19 19 13 14 14 15 18 15 13 13 13 12 11 11 11
4 5 4 5 5 6 6 7 8 10 11 11 12 12 13 13 12 24 24 15 15 18 22 16 13 11 13 13 13 14 12 14 15 15 17 15 12 10 11 11 11 8 9
4 3 3 5 5 6 7 8 16 21 23 25 28 22 12 25 31 32 32 33 34 34 16 15 14 14 13 13 13 12 12 16 13 16 17 13 9 15 14 11 11 11 11
4 5 4 5 5 6 6 7 10 16 23 22 23 25 27 27 30 30 31 32 30 25 11 13 14 14 15 13 11 10 13 13 14 14 8 10 13 9 9 11 10 10 10
4 7 4 4 5 6 6 7 8 9 11 15 19 22 23 26 28 29 28 22 12 12 10 12 14 14 14 14 10 11 11 12 10 11 8 9 11 9 9 11 11 12 11
4 3 3 4 5 6 7 7 7 8 9 11 12 15 15 26 24 23 23 8 11 11 12 13 13 14 15 12 10 10 11 11 11 10 8 7 6 7 9 10 10 15 14
4 7 5 3 5 5 5 6 7 7 8 9 9 10 13 12 12 12 10 10 9 10 11 12 13 13 13 14 8 8 9 10 11 10 9 6 5 6 8 8 10 10 10
3 3 5 3 4 4 5 5 7 7 8 8 9 10 23 10 10 10 11 10 10 11 11 12 12 12 12 12 12 8 9 10 10 8 6 4 5 7 6 7 8 9 8
3 3 2 3 4 4 4 5 6 6 7 8 9 9 21 8 8 9 10 10 10 10 9 10 10 11 11 11 11 10 9 7 7 4 3 2 2 3 4 6 6 6 8
3 3 3 3 3 5 4 4 4 5 6 7 8 8 8 8 9 10 10 11 11 10 10 10 10 11 11 11 10 9 8 7 6 5 4 4 4 4 4 5 6 7 8
2 3 3 3 3 3 3 4 4 6 6 6 5 7 7 8 9 10 10 10 10 10 10 10 10 14 12 11 10 9 8 7 6 6 6 4 5 5 6 6 6 7 8
2 2 3 3 3 3 4 4 4 5 4 5 5 6 7 7 8 9 9 10 10 10 11 11 10 15 17 19 12 11 11 12 9 9 5 7 8 8 6 6 7 7 9
2 3 3 3 3 3 3 4 4 4 4 6 5 6 7 7 8 8 8 9 10 10 12 9 12 18 19 14 17 16 12 11 10 11 7 6 7 6 6 8 11 8 10
Wind_Direction
105 76 54 32 24 17 16 360 352 332 330 334 327 318 310 312 314 319 313 310 316 304 301 290 282 269 267 259 247 241 252 248 262 267 231 226 216 210 206 211 205 205 212
103 78 56 42 21 8 358 346 344 326 321 315 317 321 318 311 304 293 299 295 289 300 301 298 282 284 269 255 256 255 244 244 258 269 261 222 215 213 213 209 211 213 210
137 116 57 336 304 280 281 294 301 304 306 308 314 314 313 310 308 307 303 300 290 281 283 286 288 284 278 268 257 263 257 249 247 258 262 226 219 177 187 218 208 218 214
175 179 233 321 323 333 336 332 325 314 308 308 306 303 297 295 296 302 302 304 300 295 289 278 276 273 272 274 266 262 260 255 252 251 256 247 212 208 199 202 213 210 211
170 102 9 348 335 342 339 328 327 328 322 317 314 309 304 298 300 308 307 304 298 295 292 288 282 276 269 265 267 267 258 254 251 251 256 249 217 201 209 187 216 204 220
71 40 3 354 359 352 341 335 325 316 313 310 307 304 303 301 308 309 307 302 296 289 286 283 283 282 280 277 272 266 260 254 254 249 251 246 245 223 219 208 204 200 223
72 16 9 6 355 349 336 325 318 315 313 307 304 303 300 304 308 306 305 299 296 289 287 287 285 279 284 286 282 274 267 261 255 249 251 243 248 236 207 210 206 211 225
74 12 8 26 355 330 319 311 308 306 304 304 302 301 297 299 304 306 302 294 289 286 285 286 287 288 285 286 286 283 274 260 253 253 250 253 246 239 224 216 215 223 229
36 69 89 29 302 307 298 296 297 298 296 295 293 297 297 296 301 301 302 295 286 285 284 281 280 282 284 285 282 279 272 270 266 255 254 254 251 243 233 218 223 210 225
74 3 339 311 275 291 289 295 292 287 289 295 294 292 292 292 295 297 297 289 284 285 284 284 283 287 290 289 283 272 268 267 269 265 256 257 254 249 241 218 210 219 222
95 293 277 289 288 285 287 286 290 290 289 290 288 291 289 284 284 291 293 288 286 285 280 281 281 287 289 288 286 281 274 280 266 266 258 249 240 242 241 232 213 215 218
231 268 277 273 278 286 283 285 286 288 290 289 291 293 285 281 278 285 290 290 288 288 285 282 280 282 284 282 279 272 274 278 273 268 258 239 234 235 238 235 231 217 223
218 258 265 265 265 263 268 282 289 285 282 291 297 291 284 280 272 275 281 286 284 277 269 270 274 279 278 283 290 285 281 273 270 274 256 248 234 227 231 233 233 229 225
256 267 262 251 265 257 265 275 281 282 283 289 285 280 279 283 287 287 277 274 274 275 272 270 264 267 269 265 269 267 264 259 256 270 267 250 231 221 217 218 227 223 212
251 262 261 260 258 277 264 274 277 274 279 286 285 291 297 299 295 295 303 298 290 285 290 287 282 253 253 252 248 248 254 254 254 264 254 242 244 214 206 203 208 205 209
266 271 272 280 279 285 288 292 289 293 299 300 301 303 298 302 307 309 316 310 305 308 303 300 294 286 274 261 256 255 253 257 255 267 232 240 245 212 199 196 200 204 204
234 277 284 286 288 288 293 295 302 308 308 309 308 314 313 312 320 317 313 318 323 325 309 299 297 294 284 274 258 251 258 256 260 272 252 224 227 215 199 193 191 197 197
252 268 268 270 274 283 285 288 294 295 308 313 318 320 325 325 322 323 333 334 321 320 306 303 301 297 291 282 251 251 259 266 265 269 256 246 228 205 198 199 191 194 194
254 250 246 261 269 274 290 288 290 292 301 300 306 317 317 318 329 338 335 323 316 314 313 309 307 303 306 273 249 251 257 261 269 277 268 261 219 195 199 202 194 194 190
246 255 258 252 281 284 288 294 295 298 303 302 307 315 313 334 338 334 334 325 318 314 315 314 314 314 317 330 269 246 252 259 261 260 252 237 229 214 209 190 186 181 187
234 250 249 275 265 275 282 293 290 300 302 303 306 313 331 351 324 324 325 327 324 322 321 320 318 320 323 328 331 323 259 253 256 253 251 220 199 199 199 185 182 183 173
219 239 248 245 275 280 277 284 289 296 298 304 311 315 335 328 326 325 326 326 324 321 319 319 319 325 326 329 333 336 340 349 348 347 16 39 70 118 146 151 154 148 143
210 247 258 258 276 278 286 279 280 292 296 301 308 318 326 328 327 327 328 326 327 327 328 329 331 333 335 336 338 339 341 342 339 354 26 40 57 80 102 118 127 131 139
205 233 255 275 293 275 283 285 291 289 292 299 300 314 316 323 324 323 325 326 329 330 333 334 335 337 333 342 344 346 348 353 355 8 25 51 70 78 90 99 110 121 126
208 236 253 272 267 275 293 282 284 287 284 290 306 308 310 312 315 317 321 324 326 330 335 336 339 341 343 351 336 346 358 14 19 20 30 58 71 74 82 90 102 104 113
219 240 252 263 263 266 267 279 281 285 296 299 300 303 301 309 309 310 316 324 328 327 329 333 336 340 341 353 356 5 12 35 29 34 37 52 69 74 84 94 97 98 100